Simultaneous Nadir Overpasses (SNOs) Predictions

Prediction of SNOs between AQUA and GOES-15 Satellite Orbit:

Table of predicted SNOs for the next 14.0 days since TLE Epoch: 11/19/2022
Index Date Time (AQUA) AQUA Lat,Lon GOES-15 Lat,Lon Distance(km) Time Diff (sec)
1 11/19/2022 22:05:32 0.41,-125.91 -0.07,-128.18 258.52 80
2 11/20/2022 10:26:37 0.63,-131.03 0.05,-128.25 315.75 80
3 11/22/2022 10:13:43 -0.03,-127.88 0.05,-128.21 37.17 80
4 11/24/2022 10:00:48 -0.66,-124.73 0.06,-128.16 389.19 80
5 11/24/2022 22:22:01 -0.45,-129.87 -0.04,-128.07 205.59 80
6 11/26/2022 22:09:07 0.25,-126.73 -0.05,-128.01 145.50 80
7 11/27/2022 10:30:11 0.84,-131.84 0.03,-128.07 429.08 80
8 11/28/2022 21:56:11 0.86,-123.57 -0.05,-127.94 496.19 80
9 11/29/2022 10:17:16 0.17,-128.69 0.03,-128.00 78.43 80
10 12/01/2022 10:04:20 -0.46,-125.54 0.03,-127.94 272.38 80
11 12/01/2022 22:25:33 -0.63,-130.68 -0.01,-127.84 322.75 80
